Regional Weather Roundup
Issued by NWS

Home | Current Version | Previous Version | Graphics & Text | Print | Product List | Glossary On
Versions: 1 2 3 4 5 6 7 8 9 10 11 12 13 14 15 16 17 18 19 20 21 22 23 24 25 26 27 28 29 30 31 32 33 34 35 36 37 38 39 40 41 42 43 44 45 46 47 48 49 50
000
ASUS43 KIND 050409
RWRIN

WEATHER ROUNDUP FOR INDIANA
NATIONAL WEATHER SERVICE INDIANAPOLIS IN
1200 AM EDT SAT SEP 05 2015

NOTE: "FAIR" INDICATES FEW OR NO CLOUDS BELOW 12,000 FEET WITH NO
SIGNIFICANT WEATHER AND/OR OBSTRUCTIONS TO VISIBILITY.

* - STATION DOES NOT REPORT WEATHER SUCH AS PRECIPITATION OR FOG.

+ - STATION NOT QUALITY CONTROLLED BY THE NATIONAL WEATHER SERVICE.
    USE DATA WITH CAUTION...ESPECIALLY DEWPOINT AND RELATIVE
    HUMIDITY OBSERVATIONS.

INZ001>003-010>013-019-020-050500-
NORTHWEST INDIANA

CITY           SKY/WX    TMP DP  RH WIND       PRES   REMARKS
GARY /AIRPORT/ CLEAR     71  68  92 CALM      30.07S
KNOX *+        CLEAR     68  68 100 CALM      30.07R
LA PORTE +     MOCLDY   N/A N/A N/A CALM      30.08S
MICHIGAN CITY+ MOCLDY    68  68 100 CALM      30.08R
MONTICELLO +   PTCLDY    70  67  91 CALM      30.07R
RENSSELAER +   CLEAR     70  70 100 S3        30.08R
VALPARAISO     CLEAR     70  68  93 CALM      30.08R

$$

LMZ046-743>745-050500-
SOUTHERN LAKE MICHIGAN

STATION/POSITION TIME  TEMP    WIND        PRES    WAVE
                       AIR SEA DIR/SP/G            HT
                 (UTC) (F)     (DEG/KT/KT) (MB)    (FT)
BURNS HARBOR     0300   72      80/  5/  7 1018.3R
MICHIGAN CITY    0300   71      40/  4/  5   N/A
5NW MICH CITY    0400   72 74  160/  6/ 16   N/A     1

$$

INZ004-005-014>016-021>024-050500-
NORTH CENTRAL INDIANA

CITY           SKY/WX    TMP DP  RH WIND       PRES   REMARKS
GOSHEN         MOCLDY    70  66  87 SE5       30.08R
LOGANSPORT +   MOCLDY    64  61  88 SE3       30.09S
PERU/GRISSOM   MOCLDY    69  65  88 SE5       30.09R
ROCHESTER +    PTCLDY    70  70 100 E6        30.08S
SOUTH BEND     PTCLDY    71  67  87 CALM      30.08R
WARSAW +       MOCLDY    68  66  94 CALM      30.10R

$$

INZ006>009-017-018-025>027-050500-
NORTHEAST INDIANA

CITY           SKY/WX    TMP DP  RH WIND       PRES   REMARKS
ANGOLA *+      CLEAR     70  61  73 S5        30.09S
AUBURN +       MOCLDY    68  63  83 CALM      30.10S
FORT WAYNE     MOCLDY    68  64  87 SW8       30.09S
HUNTINGTON +   MOCLDY    66  62  87 CALM      30.10S

$$

INZ028-029-035-036-043>045-051>053-050500-
WEST CENTRAL INDIANA

CITY           SKY/WX    TMP DP  RH WIND       PRES   REMARKS
CRAWFORDSVL +  PTCLDY    64  64 100 SE3       30.08S
GREENCASTLE +  CLOUDY    70  63  78 CALM      30.09R
LAFAYETTE      CLEAR     69  64  84 W6        30.07S
TERRE HAUTE    CLOUDY    73  65  75 CALM      30.07F

$$

INZ030>032-037>040-046>048-054>057-064-065-050500-
CENTRAL INDIANA

CITY           SKY/WX    TMP DP  RH WIND       PRES   REMARKS
FISHERS *+     CLOUDY    68  66  94 CALM      30.09
FRANKFORT +    PTCLDY   N/A N/A N/A CALM      30.10F
GREENWOOD *+   CLOUDY    72  61  68 S3        30.10R
INDIANAPOLIS   CLOUDY    71  66  84 CALM      30.08S
-EAGLE CREEK   CLOUDY    71  67  87 CALM      30.09R
KOKOMO *+      MOCLDY    66  63  88 SE5       30.10S
MARION +       MOCLDY    65  59  81 CALM      30.12R
MT COMFORT *+  CLOUDY    66 N/A N/A CALM      30.09S
SHELBYVILLE    CLOUDY    70  65  84 CALM      30.09R
ZIONSVILLE +   CLOUDY    70  64  81 SW6       30.11R

$$

INZ033-034-041-042-049-050-058-059-050500-
EAST CENTRAL INDIANA

CITY           SKY/WX    TMP DP  RH WIND       PRES   REMARKS
MUNCIE         CLOUDY    68  62  81 S7        30.10R

$$

INZ060-061-067>069-081>083-085>088-050500-
SOUTHWEST INDIANA

CITY           SKY/WX    TMP DP  RH WIND       PRES   REMARKS
EVANSVILLE     CLEAR     76  69  79 CALM      30.06S
HUNTINGBURG *+ CLEAR     73  66  78 CALM      30.07S
WASHINGTON +   PTCLDY    75  69  80 CALM      30.07R

$$

INZ062-063-066-070>080-084-089>092-050500-
SOUTH CENTRAL AND SOUTHEAST INDIANA

CITY           SKY/WX    TMP DP  RH WIND       PRES   REMARKS
BLOOMINGTON    CLOUDY    75  65  70 S7        30.08F
MADISON *+     CLOUDY    70  64  83 SE7       30.13R
NORTH VERNON + CLOUDY    70  70 100 SE7       30.09F
SEYMOUR +      MOCLDY    72  64  78 SW3       30.08S

$$



USA.gov is the U.S. government's official web portal to all federal, state and local government web resources and services.